Regional Weather Roundup
Issued by NWS Columbia, SC

Home | Current Version | Previous Version | Text Only | Print | Product List | Glossary On
Versions: 1 2 3 4 5 6 7 8 9 10 11 12 13 14 15 16 17 18 19 20 21 22 23 24 25 26 27 28 29 30 31 32 33 34 35 36 37 38 39 40 41 42 43 44 45 46 47 48 49 50
000
ASUS42 KCAE 020410
RWRCAE
REGIONAL WEATHER ROUNDUP
NATIONAL WEATHER SERVICE COLUMBIA SC
1200 AM EDT TUE SEP 02 2014

NOTE: "FAIR" INDICATES FEW OR NO CLOUDS BELOW 12,000 FEET WITH NO
SIGNIFICANT WEATHER AND/OR OBSTRUCTIONS TO VISIBILITY.

NOT ALL STATIONS ARE QUALITY CONTROLLED BY THE NATIONAL
WEATHER SERVICE. USE DATA WITH CAUTION...ESPECIALLY
DEWPOINT OBSERVATIONS.

SCZ001>056-GAZ040-063>065-077-020500-
...UPSTATE SOUTH CAROLINA...

CITY           SKY/WX    TMP DP  RH WIND       PRES   REMARKS
ANDERSON       MOCLDY    75  72  90 CALM      30.12S
LIBERTY        FAIR      73  32  22 CALM      30.12S
SPARTANBURG    FAIR      77  72  83 SW6       30.10F
CLEMSON        MOCLDY    81  69  67 SW5       30.13S
GREENVILLE     MOCLDY    79  68  69 S3        30.13S
GREENWOOD      MOCLDY    77  68  73 CALM      30.11F
GREER          MOCLDY    76  69  79 SW6       30.10F
ROCK HILL      PTCLDY    71  69  93 SW6       30.10S
LAURENS        FAIR      75  63  64 S3        30.11F


...CENTRAL SOUTH CAROLINA...

CITY           SKY/WX    TMP DP  RH WIND       PRES   REMARKS
COLUMBIA APT   MOCLDY    77  73  87 CALM      30.08F
COLUMBIA OWENS PTCLDY    77  74  90 CALM      30.10S
DARLINGTON     MOCLDY    79  68  69 S7        30.10S
FLORENCE       MOCLDY    79  72  79 SW5       30.09S
MCENTIRE ANGB  MOCLDY    75  74  99 E2        30.10R
ORANGEBURG     MOCLDY    78  73  84 SE3       30.11R
SUMTER SHAW    MOCLDY    78  76  92 SW7       30.08S
NEWBERRY       FAIR      77  70  78 S3        30.13F
AIKEN          FAIR      77  77 100 CALM      30.13F
BARNWELL       FAIR      75  73  94 N3        30.11R
MANNING        FAIR      81  81 100 S6        30.10S
CAMDEN         FAIR      73  72  94 CALM      30.10S
LANCASTER      FAIR      73  72  94 CALM      30.10S
WINNSBORO      FAIR      75  72  88 S5        30.10S


...EASTERN AND COASTAL SOUTH CAROLINA...

CITY           SKY/WX    TMP DP  RH WIND       PRES   REMARKS
MYRTLE BEACH   PTCLDY    81  75  83 W5        30.10R
N MYRTLE BCH   PTCLDY    83  76  79 SW10      30.09S
CONWAY         FAIR      75  75 100 CALM      30.10R FOG
HARTSVILLE     FAIR      79  61  53 CALM      30.10F
FLORENCE       MOCLDY    79  72  79 SW5       30.09S
DARLINGTON     MOCLDY    79  68  69 S7        30.10S
CHARLESTON APT CLOUDY    81  76  84 CALM      30.09S
MOUNT PLEASANT FAIR      81  79  94 S6        30.09S
WALTERBORO     MOCLDY    79 N/A N/A CALM      30.10S
BEAUFORT       PTCLDY    82  77  84 SW5       30.09F


...EASTERN GEORGIA...

CITY           SKY/WX    TMP DP  RH WIND       PRES   REMARKS
AUGUSTA BUSH F CLOUDY    77  75  93 W6        30.09S
AUGUSTA DANIEL CLOUDY    79  74  84 CALM      30.11S
THOMSON        CLOUDY    76  76 100 CALM      30.14F
WASHINGTON     FAIR      79  79 100 CALM      30.11F
SYLVANIA       MOCLDY    82  79  91 CALM      30.10F
STATESBORO     MOCLDY    79  78  98 CALM      30.09F
SAVANNAH       PTCLDY    81  76  84 S6        30.11S


...SOUTHERN NORTH CAROLINA...

CITY           SKY/WX    TMP DP  RH WIND       PRES   REMARKS
CHARLOTTE      PTCLDY    77  67  71 SW3       30.10S
MONROE         PTCLDY    75  68  78 SW3       30.09R
WADESBORO      PTCLDY    78  68  71 S3        30.07F
ROCKINGHAM     PTCLDY    80  71  74 S7        30.08S
RUTHERFORDTON  PTCLDY    72  71  95 CALM      30.13S
ASHEVILLE      PTCLDY    71  69  93 CALM      30.19S

$$



USA.gov is the U.S. government's official web portal to all federal, state and local government web resources and services.